Wind_Speed
22 22 22 23 23 22 21 21 21 20 20 19 18 18 18 17 17 16 16 15 15 15 14 12 11 12 11 11 11 11 11 11 11 10 10 10 11 12 13 13 13 12 12 11 9 8 7 5 5 5 6 7 7 6 5 4 5 8 12 15 17 17 16 15 13 12 11 11 10 10 10 10 11 11 11 12 13 14 13 12 11 10 9 9 8
23 23 23 23 22 22 21 21 21 21 20 20 19 19 19 18 17 17 16 16 16 15 14 13 12 12 12 11 11 11 12 12 11 11 10 10 11 12 13 14 14 12 12 11 9 8 7 6 5 5 6 7 7 6 6 5 6 8 12 15 17 17 16 15 14 13 12 11 11 11 11 11 11 11 11 12 13 14 13 12 11 10 9 9 8
24 25 24 23 22 22 21 21 21 21 21 21 20 20 20 18 18 17 17 16 16 15 14 13 13 13 12 12 12 12 12 12 12 11 10 10 11 12 13 14 15 14 13 12 9 8 7 6 6 6 7 8 8 7 6 5 6 8 12 14 16 17 17 16 15 14 12 12 11 11 11 11 11 12 11 12 13 13 13 12 11 10 9 9 8
25 26 24 24 23 22 21 22 22 22 22 22 21 21 20 19 18 18 17 17 16 16 15 14 14 13 13 13 13 12 12 13 12 12 11 11 11 11 12 14 15 15 14 13 10 8 8 6 6 7 8 9 9 8 7 6 6 8 11 14 16 17 17 16 15 14 13 12 12 11 11 12 12 12 12 12 13 13 13 12 11 10 9 9 8
26 26 25 24 23 22 21 22 22 22 23 23 23 22 21 20 19 18 17 17 17 16 15 15 14 14 14 14 13 13 13 13 13 12 12 12 12 12 13 14 15 16 15 14 11 9 8 6 6 7 8 10 10 9 8 6 6 8 11 14 16 17 18 17 16 15 13 13 12 12 12 12 12 12 12 12 13 13 13 12 11 10 10 9 8
27 26 25 25 23 22 22 22 22 23 23 24 24 23 21 20 20 18 18 17 17 16 16 16 15 15 15 15 14 14 13 13 13 13 13 13 14 14 14 13 14 16 16 15 13 11 9 6 6 7 8 11 11 10 9 8 7 9 11 14 15 17 18 18 16 15 14 13 12 12 12 12 12 13 12 12 12 13 13 12 11 10 10 9 8
26 26 26 24 24 23 23 23 23 23 24 25 25 24 22 21 21 19 18 17 16 16 16 16 16 17 16 16 15 14 14 14 13 13 13 14 14 14 13 13 13 15 16 16 15 13 11 7 6 7 9 11 12 11 10 9 8 9 12 14 16 18 18 17 16 15 14 13 13 13 13 12 12 12 12 12 12 13 13 12 12 11 10 9 9
27 26 25 24 24 24 24 24 24 24 25 26 26 25 24 22 21 20 18 17 16 16 17 17 17 18 17 17 16 15 14 14 14 12 12 13 14 15 14 14 13 14 15 16 16 14 13 9 7 7 9 11 12 12 12 10 9 9 12 14 16 18 18 17 17 15 14 14 13 13 12 13 13 13 12 12 12 13 13 12 12 11 11 10 9
28 26 25 25 25 25 25 25 25 25 26 26 26 25 24 23 22 20 18 17 17 17 17 18 18 18 18 17 16 16 15 14 14 13 12 12 13 15 16 15 15 14 15 16 17 16 15 12 9 8 9 11 13 14 13 12 10 10 11 14 17 18 18 19 18 17 15 14 14 14 13 13 13 13 13 13 13 13 13 13 12 12 11 10 10
28 27 26 26 26 26 26 26 26 26 26 26 26 25 24 23 22 20 19 18 18 17 18 19 19 19 19 18 17 16 16 15 14 13 12 12 12 15 16 16 16 15 15 16 17 18 17 15 12 9 10 12 14 15 15 13 12 11 11 14 17 19 20 20 19 18 17 15 14 15 14 13 13 13 14 14 13 14 13 13 13 12 12 11 10
28 28 28 28 28 28 27 27 27 27 27 27 26 25 24 23 21 20 19 19 19 19 19 19 19 19 19 19 18 17 17 16 15 14 13 13 12 14 16 17 17 16 16 16 17 18 18 17 14 11 10 12 14 16 16 15 13 12 12 14 18 19 20 20 20 19 18 17 16 16 15 14 13 13 14 14 14 14 14 14 13 13 12 12 11
29 29 29 29 29 28 28 28 27 28 27 26 26 25 24 23 21 20 19 19 20 20 20 20 20 20 20 19 19 18 18 17 16 15 14 13 13 13 14 16 18 18 18 17 18 18 19 19 17 13 11 13 15 16 17 16 15 13 12 14 18 20 21 21 20 20 19 18 17 17 16 15 14 14 14 15 15 15 15 14 14 13 13 12 12
30 30 30 30 29 29 29 28 28 27 27 27 26 24 23 22 20 20 20 20 20 20 20 20 21 20 20 20 20 19 19 18 17 16 15 14 14 14 14 15 17 18 19 19 18 19 20 20 19 16 13 13 15 16 18 18 17 15 13 14 18 21 22 22 21 21 20 19 18 18 18 17 16 15 15 15 16 16 16 15 14 13 13 12 12
30 31 30 30 30 30 29 28 28 27 27 27 26 25 23 22 20 20 20 20 20 21 21 21 21 21 21 20 20 20 20 19 18 17 17 16 16 16 16 16 17 18 20 20 20 19 20 21 20 17 15 14 15 17 19 19 18 17 15 15 18 21 22 23 23 22 21 21 20 19 20 19 18 17 16 16 15 15 15 15 15 14 14 13 12
31 31 31 31 30 29 28 27 27 27 28 27 27 25 24 22 21 20 20 20 21 21 21 21 21 21 21 21 21 21 20 19 19 19 18 17 17 17 18 18 18 18 20 21 21 20 21 21 21 19 17 16 16 17 19 20 20 18 17 16 18 20 22 23 23 22 22 22 21 20 20 21 20 18 17 16 15 15 15 15 15 15 14 13 13
32 32 32 31 30 28 28 27 27 27 27 27 27 25 24 23 22 21 21 21 21 22 22 21 22 22 22 22 22 21 20 20 20 19 19 18 17 18 18 18 18 19 20 21 22 21 21 21 22 21 18 17 17 18 19 20 21 20 18 17 17 19 21 23 23 23 22 21 21 21 21 22 21 20 18 17 16 16 15 15 15 15 14 14 13
33 32 31 30 29 28 28 27 27 27 27 26 26 26 25 24 23 22 23 22 22 23 22 22 22 22 22 22 22 21 20 20 21 20 19 19 18 18 18 18 18 18 19 21 21 21 21 21 22 22 20 19 18 18 19 20 21 21 19 18 17 18 21 22 24 24 22 21 22 22 21 21 22 21 20 19 18 17 16 16 15 15 15 14 14
32 30 30 29 29 28 28 27 26 26 26 26 26 26 25 25 24 23 23 23 23 23 22 23 22 22 22 21 21 20 20 21 21 20 20 19 18 18 17 17 17 18 19 20 21 20 20 21 22 22 21 20 19 19 20 21 22 22 21 18 17 18 20 22 24 25 24 23 23 22 22 22 22 22 21 21 19 19 18 17 16 16 16 15 14
30 30 29 29 29 28 28 27 26 27 26 25 26 26 25 25 25 24 24 24 23 23 23 23 22 22 22 21 20 20 20 21 21 21 20 19 18 17 17 16 17 17 18 20 20 20 19 20 22 23 22 21 20 19 20 22 22 23 23 20 18 18 19 22 24 25 26 26 23 23 23 23 23 23 22 22 21 20 19 18 17 16 16 15 14
30 29 29 28 28 29 28 27 27 27 27 26 25 25 25 26 26 25 24 24 23 23 23 23 23 22 22 21 21 21 21 21 21 21 19 18 17 16 16 16 16 17 18 19 20 20 19 19 21 23 23 22 21 21 21 22 23 24 24 22 19 18 19 21 23 24 26 26 24 23 25 24 24 23 23 23 22 21 20 19 17 16 15 15 15
29 28 28 28 28 29 29 28 27 28 28 27 25 25 25 25 25 25 24 23 23 23 22 23 23 22 21 21 22 22 22 21 20 19 19 17 16 15 15 15 16 17 18 19 20 20 19 19 21 22 24 23 23 22 21 21 23 24 25 24 21 19 20 21 21 24 26 26 25 25 25 25 24 24 24 24 22 22 21 20 18 17 16 15 15
28 28 27 27 28 29 30 29 28 29 29 27 26 26 25 24 24 24 24 24 23 23 23 23 23 22 21 21 22 22 21 21 19 19 18 17 15 15 15 14 16 17 18 19 20 20 20 20 21 21 22 23 23 23 22 22 24 25 26 26 24 22 21 22 22 24 26 25 25 26 26 25 25 24 24 24 23 22 21 20 19 18 17 16 15
28 27 27 27 28 29 30 30 29 29 29 26 26 27 27 25 23 23 24 24 23 23 23 22 22 20 20 21 22 22 21 20 19 18 18 16 14 14 15 15 16 17 17 18 19 19 20 20 20 20 20 22 23 24 23 23 24 26 28 28 27 26 23 23 23 23 24 24 26 27 27 26 26 25 25 24 24 23 22 21 19 18 18 17 16
27 27 28 28 28 28 29 29 29 29 28 27 27 27 27 26 24 24 23 23 23 23 23 22 22 20 19 21 21 21 21 19 17 17 17 15 13 14 15 16 18 18 18 18 18 19 19 20 20 20 20 22 23 24 24 24 24 26 29 30 30 28 25 24 23 23 24 23 26 28 27 27 27 26 27 25 25 24 23 22 20 19 18 17 16
28 28 28 28 28 27 27 28 28 30 29 29 29 28 28 26 25 25 24 24 24 23 22 22 23 21 21 22 22 21 20 18 16 15 15 14 13 14 15 16 18 19 19 19 19 19 19 20 21 21 21 22 23 23 24 24 24 26 29 32 32 30 27 25 23 24 23 22 26 29 29 29 28 27 27 27 26 25 24 22 21 19 18 17 16
28 28 28 27 26 25 25 25 26 28 29 30 30 28 28 27 26 26 25 24 24 23 22 21 22 22 22 21 21 20 18 17 15 14 15 15 13 13 15 17 18 19 20 19 20 20 20 21 22 22 22 24 25 23 23 23 23 26 30 32 33 31 28 26 24 24 23 22 26 29 29 30 29 28 28 28 27 26 25 24 22 21 20 19 18
27 27 27 25 24 23 24 24 25 26 27 29 29 28 28 28 27 27 26 25 25 25 23 22 22 23 21 20 21 18 16 15 14 14 14 15 14 14 16 16 16 16 14 16 19 20 21 21 22 23 24 26 27 25 24 23 23 26 28 31 33 33 30 28 26 24 23 22 25 28 29 30 30 29 28 28 28 28 27 26 25 24 22 21 20
27 26 25 23 23 23 23 24 25 25 26 27 28 28 28 27 27 27 27 27 26 25 24 23 23 23 21 20 19 18 19 18 18 17 15 15 15 15 15 14 13 12 10 11 16 20 21 21 22 23 24 26 27 27 25 24 25 27 27 30 33 34 32 30 27 25 24 23 24 26 28 29 30 30 29 28 28 28 28 27 27 26 25 24 23
27 25 23 23 23 23 24 25 25 25 26 27 28 28 27 26 26 26 27 26 25 24 24 24 23 24 23 20 18 18 20 20 19 18 17 17 16 15 14 14 14 14 13 13 14 17 20 21 22 23 24 26 28 28 27 26 27 28 30 31 33 36 34 31 28 26 25 24 24 24 26 28 29 30 31 30 30 29 29 28 28 27 26 25 24
26 25 23 23 23 24 25 25 25 25 25 26 26 26 26 26 26 26 27 25 24 25 24 23 23 23 23 21 20 20 20 20 20 18 18 18 17 17 16 15 16 16 15 14 14 16 17 19 22 23 24 26 27 28 29 28 28 28 30 34 36 37 36 33 30 27 26 25 24 24 25 27 28 30 31 32 32 31 30 29 28 27 26 25 24
26 25 24 24 24 25 26 26 25 24 24 24 23 24 24 24 25 26 26 25 25 25 24 24 25 24 23 22 21 21 20 20 20 19 18 18 19 19 17 17 17 17 17 16 15 15 16 17 19 23 25 26 27 28 29 29 29 28 29 34 37 37 36 34 32 29 27 26 25 24 25 26 28 29 31 33 33 33 32 31 29 28 27 26 25
26 26 25 25 25 26 26 25 23 23 23 23 22 21 22 22 23 24 26 26 26 25 24 24 25 25 24 23 22 22 21 20 20 19 19 19 20 20 18 17 18 18 18 17 16 16 16 17 18 21 23 24 26 28 28 28 28 28 27 31 36 36 37 36 34 32 29 28 26 25 24 25 27 29 30 32 33 33 33 32 31 30 29 28 27
27 26 26 26 27 27 25 23 22 22 22 22 22 21 21 22 23 23 24 26 26 25 25 25 25 25 25 24 23 23 22 21 20 21 20 20 21 22 20 19 19 19 18 18 18 17 17 18 18 19 20 22 26 28 29 28 27 28 27 29 33 34 36 38 36 34 31 29 28 26 25 25 26 28 29 30 31 32 33 32 32 31 30 29 28
28 27 27 27 28 28 26 23 22 22 22 22 23 22 22 22 23 24 24 25 27 27 26 26 26 26 25 25 23 23 23 22 22 22 22 22 21 22 21 20 20 20 20 19 19 19 19 18 18 18 19 20 23 26 28 27 25 25 26 27 31 33 35 38 38 36 34 31 30 28 26 26 26 27 27 28 29 31 32 32 31 31 31 30 29
28 28 28 28 28 29 27 25 23 23 23 23 23 23 23 24 24 25 24 25 27 27 27 27 26 26 26 25 24 24 24 24 24 23 23 24 22 20 20 21 21 21 21 21 21 22 21 20 19 18 19 19 20 23 26 27 24 22 23 25 28 30 33 37 38 37 35 33 32 30 28 28 27 26 27 27 28 29 30 31 30 30 30 30 29
29 29 30 30 30 29 27 25 24 24 24 24 23 23 23 24 25 26 25 26 27 28 27 27 27 27 26 25 25 25 25 25 24 23 24 24 22 20 22 23 22 21 22 22 22 22 22 20 19 19 19 19 20 22 24 26 25 23 23 23 26 28 30 35 37 38 37 36 34 33 31 29 28 27 27 27 27 28 29 29 29 30 29 29 29
30 30 30 30 30 29 27 25 24 24 24 24 25 24 24 24 25 26 26 26 27 28 28 27 27 27 27 26 25 25 26 26 25 25 26 25 23 22 23 24 23 22 23 23 23 22 21 21 21 21 21 20 20 22 23 24 24 23 24 24 25 27 30 33 37 39 40 39 37 36 34 32 30 29 27 27 27 27 28 28 29 29 29 29 29
28 27 27 27 28 27 27 26 24 24 24 24 25 25 25 25 24 25 26 26 27 28 28 28 28 28 27 27 26 26 27 27 27 27 27 27 26 24 24 25 24 23 23 24 24 21 21 21 21 21 22 21 20 21 22 22 23 23 24 26 26 27 29 32 35 39 42 41 39 39 37 35 33 31 29 29 28 28 28 28 28 29 29 29 29
26 24 25 25 25 26 26 25 24 24 24 24 25 26 27 27 26 25 25 26 27 28 29 29 29 29 29 28 27 28 28 29 28 28 28 28 27 25 25 25 25 25 24 24 24 22 22 22 21 22 22 20 19 20 21 22 22 22 24 25 27 28 29 29 32 37 41 42 41 41 40 39 36 34 32 32 31 29 28 27 28 28 29 29 29
24 24 24 24 25 26 26 25 25 25 25 25 25 26 27 28 28 27 27 27 28 29 29 30 30 30 30 30 30 30 30 30 30 29 29 28 28 26 26 26 26 27 25 24 23 22 23 23 22 22 22 20 20 21 22 22 21 22 23 24 26 29 29 29 29 33 38 42 43 43 42 41 40 37 36 35 33 31 29 28 27 27 28 28 29
23 23 24 25 26 27 26 26 26 25 25 25 26 26 26 27 28 29 29 29 29 29 30 31 31 31 32 32 32 32 32 31 31 30 30 29 28 27 27 27 27 27 26 24 23 22 23 24 23 24 23 22 21 20 21 22 22 23 23 23 26 28 28 29 29 30 33 39 42 42 43 43 41 40 39 38 36 33 32 30 29 28 28 28 28
22 23 25 26 28 28 27 26 25 25 25 25 26 26 26 26 26 27 29 29 30 30 30 31 31 33 33 33 33 33 32 32 31 30 30 29 29 28 28 28 27 27 26 25 24 22 23 24 24 24 24 25 24 21 20 22 22 24 25 24 25 26 27 29 30 30 31 34 38 41 43 43 42 42 42 41 39 37 35 33 31 30 29 29 28
22 24 26 27 29 29 27 26 25 25 24 25 26 26 27 27 26 26 26 28 29 29 30 31 32 33 33 33 33 32 32 31 31 30 29 29 29 28 28 28 28 27 26 25 24 23 24 24 24 24 24 25 26 25 24 24 24 24 25 25 24 24 25 27 30 32 34 34 36 39 41 41 42 42 43 44 42 39 37 35 34 33 32 31 30
23 24 26 28 30 30 28 27 26 25 24 24 25 26 26 27 26 26 25 26 27 28 29 30 30 31 31 31 31 31 31 30 30 30 29 28 28 27 27 27 27 27 26 25 24 24 24 25 25 24 24 24 25 25 25 25 25 25 25 25 25 24 24 24 26 29 34 37 36 37 40 40 41 42 43 44 44 42 40 39 37 36 35 34 33
23 25 27 29 31 33 31 28 27 26 25 24 25 25 26 27 27 26 25 25 26 26 27 27 28 29 29 29 29 29 29 29 29 29 28 27 26 26 26 26 26 26 26 25 25 25 25 26 26 26 25 24 24 25 26 25 25 26 26 26 26 25 23 22 22 22 28 36 38 37 38 37 39 42 43 43 44 44 43 42 41 40 38 36 35
25 27 29 30 32 34 33 30 29 28 26 25 25 25 25 26 26 26 25 25 25 25 26 26 26 27 27 27 28 28 28 28 27 27 27 26 25 24 24 24 25 25 25 25 25 25 25 26 27 27 28 26 25 25 25 25 24 25 28 28 27 26 24 24 24 21 22 29 37 39 38 35 36 40 41 43 45 45 45 44 43 42 40 38 38
27 29 30 31 33 35 35 32 30 29 28 26 26 25 25 25 25 24 25 25 25 25 25 25 26 26 26 26 26 26 26 26 26 25 25 24 23 22 22 23 23 24 24 24 25 25 25 26 26 27 28 27 27 26 26 26 26 26 27 28 26 25 26 26 26 23 20 22 29 36 39 38 37 38 38 40 44 45 45 45 45 44 43 42 41
29 31 31 31 33 35 36 34 31 31 30 28 26 25 24 23 23 23 23 23 24 24 25 25 25 25 25 25 24 24 24 24 24 23 23 22 22 21 21 21 22 23 23 23 24 25 25 26 26 27 27 27 27 27 27 28 29 29 29 28 26 24 27 28 26 23 19 18 20 26 32 36 39 41 40 41 42 42 43 44 46 47 45 45 45
30 32 31 32 34 36 37 35 32 32 32 30 27 24 23 21 21 20 20 21 21 22 24 24 25 24 24 23 23 22 22 22 22 22 22 21 21 20 20 20 21 22 22 23 24 25 25 26 26 26 26 26 27 27 27 28 28 29 29 29 28 28 31 32 29 26 23 20 19 21 25 28 33 38 41 43 42 41 41 43 45 45 43 45 47
31 32 32 33 35 36 38 36 34 33 32 28 25 22 20 19 18 18 19 19 19 20 22 23 23 23 23 22 22 21 21 21 21 21 21 21 20 20 19 19 20 21 21 22 23 24 25 25 25 25 25 25 25 26 26 26 27 27 28 28 28 28 30 32 31 30 29 27 26 25 24 24 26 29 33 36 38 38 38 40 43 44 44 45 46
32 33 34 35 36 38 38 37 34 32 29 24 21 18 17 17 17 17 18 18 19 19 20 21 22 22 22 22 21 21 21 21 21 21 21 20 20 20 19 19 19 20 21 22 22 23 24 24 24 24 24 24 24 25 25 25 26 26 26 27 27 26 28 29 30 31 32 31 31 29 27 25 23 25 28 30 32 33 32 32 35 39 41 43 43
Wind_Direction
251 251 254 257 260 264 268 272 274 275 275 275 275 276 278 280 281 284 288 292 293 295 295 293 289 286 285 288 289 289 288 287 283 276 267 258 254 246 238 232 229 228 226 224 224 229 239 244 233 214 207 203 199 196 196 199 199 197 196 196 195 190 189 188 189 192 190 184 175 165 160 153 149 149 147 145 145 144 141 138 134 128 123 117 113
249 251 253 255 259 264 268 272 274 275 275 275 274 275 277 278 281 284 288 291 293 294 294 289 285 282 281 284 285 286 285 284 280 274 266 255 249 244 237 231 226 223 223 221 219 228 236 237 226 211 205 205 203 201 203 205 201 198 197 198 196 192 191 191 190 193 191 187 179 170 163 156 153 152 152 150 149 147 144 141 136 132 126 121 118
247 249 252 255 259 263 268 271 274 275 275 275 274 275 276 277 280 284 287 289 291 292 291 286 282 280 279 280 281 283 281 280 278 272 265 255 247 241 237 231 224 220 220 218 213 225 236 234 223 209 201 204 206 206 210 213 207 200 199 199 197 194 193 192 192 194 193 189 182 174 167 161 157 156 157 155 153 150 146 143 140 136 130 125 122
247 249 252 256 259 263 267 270 274 275 275 275 275 276 276 277 280 282 285 287 290 290 288 285 280 278 277 277 278 280 279 277 275 269 261 251 244 239 237 232 225 219 218 217 212 222 235 235 225 211 199 201 206 207 213 219 214 203 201 200 197 196 195 194 194 194 193 191 186 179 172 166 162 161 161 160 158 153 149 147 144 141 135 130 127
250 251 253 256 259 263 266 270 273 275 276 276 276 276 275 276 277 279 282 285 288 289 287 283 279 275 274 274 275 277 278 276 273 268 260 249 239 234 233 231 226 220 216 216 213 219 230 235 228 216 202 199 205 207 212 221 218 206 202 200 198 198 196 195 195 195 194 192 189 183 178 172 167 165 165 163 162 157 153 151 149 146 140 136 132
253 254 255 258 261 264 268 271 273 275 275 276 277 276 275 275 275 277 279 283 287 287 285 281 277 274 272 273 274 276 276 275 271 265 258 248 237 231 229 228 228 224 218 215 215 217 224 234 228 219 209 201 203 205 209 220 221 209 203 200 199 200 198 196 197 194 194 195 193 188 182 178 172 169 168 166 165 160 156 154 153 150 146 141 138
254 255 258 261 264 267 271 273 275 276 276 276 276 275 275 275 274 274 277 281 284 284 282 278 275 272 272 272 273 274 274 272 268 261 253 245 237 232 229 229 230 229 222 218 218 219 222 232 230 219 214 206 204 205 207 216 222 213 203 200 199 201 200 197 197 195 194 194 195 193 186 181 176 171 171 168 166 164 160 159 158 156 152 147 143
255 256 259 262 266 270 273 276 276 277 277 276 275 274 275 274 273 273 275 278 280 280 278 275 273 272 272 272 273 273 272 269 264 256 248 241 235 231 229 230 231 232 227 223 221 221 224 231 235 222 216 211 206 205 208 212 220 218 206 200 201 201 199 197 197 195 194 194 194 195 191 184 178 174 173 171 169 167 165 165 164 161 157 153 148
256 256 259 263 268 272 275 277 277 278 278 276 274 273 274 273 273 273 274 275 276 276 275 273 272 272 272 273 274 273 271 267 259 250 246 241 234 231 230 230 231 233 231 227 224 223 224 229 237 229 219 215 210 207 208 211 217 220 211 203 202 201 199 198 196 194 194 195 193 193 192 188 181 176 175 173 172 170 169 170 169 167 163 159 154
254 257 261 266 269 273 275 277 278 279 277 275 274 273 274 274 273 272 271 272 273 273 272 271 271 272 273 273 273 273 270 264 254 245 241 238 235 232 231 231 232 234 234 231 227 225 224 227 234 233 223 217 212 210 209 210 215 219 214 206 204 202 200 199 196 195 193 191 192 192 192 190 185 179 177 176 175 174 173 174 174 172 168 164 159
257 260 264 268 271 274 276 278 279 278 276 274 274 274 275 275 274 271 269 270 270 271 271 271 272 273 274 274 273 272 268 262 250 242 238 236 235 233 232 232 234 235 236 235 232 227 225 227 232 234 227 221 215 212 211 210 213 217 217 210 206 203 202 202 199 196 194 190 191 191 191 192 187 182 180 178 178 177 176 178 178 176 173 168 164
261 263 266 269 272 274 276 278 278 276 275 275 275 276 276 276 274 271 270 271 270 270 271 272 273 274 274 273 273 270 267 261 249 241 237 236 235 235 235 236 237 238 238 237 236 232 227 226 230 233 230 226 219 214 212 211 214 216 218 213 208 205 203 203 201 197 195 193 191 190 189 190 189 185 184 182 182 181 178 179 181 180 176 172 168
261 265 267 270 272 274 276 277 276 275 275 276 278 279 278 277 274 273 271 271 271 271 271 272 273 274 274 273 272 269 265 258 246 240 237 236 235 235 237 240 241 241 240 239 239 237 231 226 228 231 229 228 224 217 214 212 214 215 217 215 210 206 203 202 203 198 195 195 192 191 189 191 191 187 186 186 186 184 182 181 182 183 180 177 173
262 265 267 271 273 275 276 276 275 274 276 278 279 279 278 277 275 274 272 273 272 272 272 272 273 273 272 271 269 267 263 255 244 239 238 237 237 240 243 246 248 245 242 240 240 240 236 229 226 229 230 228 225 220 215 214 215 216 217 216 211 207 205 203 202 200 197 195 194 192 190 191 192 191 189 189 189 187 185 183 184 185 184 181 178
262 265 268 272 275 277 276 275 275 275 278 279 279 279 278 276 274 272 271 272 270 270 270 271 272 272 271 270 268 265 262 254 243 240 241 242 243 246 251 254 255 252 245 239 238 240 239 233 228 228 230 229 225 222 218 216 216 216 217 217 213 208 207 205 203 202 200 197 197 195 192 192 192 193 191 190 191 190 188 186 186 187 185 183 181
264 267 270 273 277 279 278 276 276 276 279 280 280 280 280 277 274 271 270 270 269 268 268 269 269 269 269 268 266 263 259 252 244 242 244 247 249 251 255 260 260 256 250 241 236 237 239 235 230 228 229 230 226 222 220 219 217 217 219 219 216 211 208 207 204 203 203 202 201 199 196 195 194 194 192 191 192 191 191 189 188 188 186 184 183
266 269 272 275 278 279 279 279 277 278 280 280 280 280 279 278 275 272 270 268 267 266 266 267 266 267 268 266 264 261 255 250 245 245 249 252 254 256 258 262 263 258 252 244 236 234 239 237 231 229 229 230 229 224 220 220 218 218 221 222 220 215 210 208 206 204 204 206 207 203 200 199 197 195 193 193 194 193 193 191 190 189 186 184 184
267 271 274 278 279 279 280 281 280 280 281 281 280 280 279 276 274 271 269 268 266 265 265 264 264 265 265 265 264 261 254 250 248 249 254 257 258 260 261 261 262 257 251 244 237 232 236 237 232 228 229 231 231 227 221 219 218 219 221 224 225 221 214 209 209 206 204 207 209 206 203 203 201 197 196 197 196 196 195 194 193 191 189 185 185
269 273 276 278 278 279 279 280 282 282 282 282 280 279 278 275 272 269 267 266 265 263 263 263 263 262 262 263 263 260 255 252 250 250 255 260 263 264 263 260 259 255 246 240 236 232 232 236 233 229 228 231 232 231 224 219 218 219 220 223 227 227 220 213 210 208 206 206 206 207 207 206 205 201 200 200 199 200 198 197 196 193 191 187 186
270 273 275 276 277 279 280 281 283 283 283 282 280 279 277 275 272 268 266 264 262 261 260 261 261 259 260 260 259 258 257 256 253 252 257 261 265 265 260 256 253 249 241 234 234 234 232 233 235 232 230 230 232 233 228 221 219 219 219 219 225 229 225 218 213 210 211 208 204 207 210 208 207 206 206 206 203 203 201 199 200 197 194 191 188
270 272 274 276 278 279 280 283 284 283 281 279 278 279 276 272 270 268 266 263 261 259 258 258 257 257 257 257 258 257 257 259 256 255 258 257 260 259 251 247 246 244 237 232 233 234 232 232 235 234 233 232 232 234 231 224 221 220 219 218 221 227 227 224 217 212 213 210 205 208 211 209 209 209 209 211 209 207 206 203 201 201 199 196 192
269 271 273 276 278 279 281 283 285 283 281 279 277 278 276 272 270 268 266 264 260 258 256 255 255 256 257 256 256 257 257 259 257 256 256 251 253 251 243 241 242 241 237 234 235 237 235 234 236 236 235 234 233 234 232 227 224 221 220 219 219 222 224 225 221 216 214 210 208 210 210 210 211 212 213 214 214 213 211 208 205 203 202 201 199
267 270 272 275 277 280 282 282 283 282 280 279 277 276 275 275 272 268 265 262 260 258 257 256 257 258 261 258 254 254 255 256 256 257 257 253 251 246 240 238 238 237 235 234 236 239 240 239 239 237 236 238 236 235 234 229 226 223 220 220 220 221 221 224 224 221 217 211 209 212 211 211 211 212 214 215 217 217 216 214 211 209 208 206 204
266 270 272 275 278 281 283 282 283 282 282 282 280 276 274 274 272 268 265 263 262 258 257 257 258 257 258 259 257 255 254 254 254 254 255 257 252 244 239 235 234 234 234 235 235 239 242 244 243 239 238 240 240 237 237 235 230 225 221 220 220 222 222 223 224 223 221 213 211 214 213 212 213 213 215 215 217 219 219 219 217 215 214 214 212
267 270 274 276 280 281 281 282 282 282 284 283 280 276 273 272 269 267 262 260 260 259 259 258 256 255 254 257 259 256 255 255 254 253 254 257 252 243 241 235 232 233 233 235 237 239 243 246 246 245 242 241 242 240 241 241 235 227 223 222 221 221 223 224 223 224 224 216 214 215 214 214 215 215 215 215 217 219 221 221 221 221 221 221 220
268 272 275 278 280 280 280 280 280 280 280 279 278 276 273 269 266 265 261 259 259 258 259 258 255 256 255 256 258 257 257 255 250 253 255 255 253 246 244 240 236 236 235 236 238 240 243 247 248 249 247 245 244 242 242 244 240 230 223 223 222 220 223 226 224 224 224 218 217 217 215 216 216 216 216 216 217 218 221 221 221 223 224 225 226
271 274 278 280 281 280 280 279 278 277 275 274 275 274 272 269 266 265 263 261 258 256 255 254 253 255 254 252 256 259 261 257 249 252 253 250 251 247 247 248 245 245 241 238 239 242 244 247 249 250 249 248 246 243 242 242 242 237 228 224 223 221 221 226 225 224 223 219 220 220 217 217 216 217 218 218 218 218 220 220 220 222 224 225 227
275 278 281 284 283 281 278 276 275 274 272 271 272 271 269 266 263 261 260 258 255 253 253 252 251 252 252 250 252 256 259 262 257 254 255 254 256 253 253 257 257 260 261 250 242 242 245 247 249 251 251 252 250 247 244 242 242 241 235 228 225 223 220 223 226 224 223 220 221 222 220 219 218 218 218 220 221 221 220 221 221 222 223 224 226
278 281 285 286 285 282 277 274 272 272 270 268 268 269 267 263 261 260 260 259 257 255 253 253 254 253 255 257 257 257 257 262 265 264 264 266 268 266 265 268 269 272 272 267 256 248 249 249 249 251 253 255 254 251 247 244 242 239 236 230 224 224 222 221 225 225 223 222 221 222 222 221 221 220 220 220 222 223 222 221 222 222 223 224 226
281 284 287 288 286 282 277 273 271 270 269 268 268 268 266 263 262 262 260 258 255 254 253 254 258 257 258 262 263 263 263 265 269 270 269 270 271 269 269 271 273 277 275 272 267 260 258 256 253 252 253 256 257 255 250 247 247 246 240 233 222 220 222 221 223 225 224 223 221 222 224 223 223 222 221 221 221 223 223 223 222 223 224 224 226
282 285 287 288 285 282 279 274 269 266 265 268 270 268 266 261 260 259 259 257 250 249 251 252 254 256 257 259 261 264 266 265 267 268 268 269 269 268 269 271 274 276 276 274 269 265 263 261 258 254 252 254 258 258 255 250 251 253 248 237 223 216 219 222 223 225 225 224 222 222 224 225 225 225 223 222 222 222 223 224 224 224 225 226 227
283 286 287 287 284 283 280 274 267 263 263 267 270 269 265 261 258 255 254 255 252 248 248 249 250 253 255 258 260 262 263 264 266 268 269 268 269 270 270 271 274 275 276 275 271 268 264 261 258 255 251 251 255 257 258 255 251 253 250 237 223 215 217 221 223 225 226 225 223 224 225 226 227 227 225 225 224 223 224 224 225 225 227 228 230
283 285 285 284 283 282 280 275 268 265 266 269 270 269 265 262 259 255 251 251 252 251 250 250 250 252 255 258 261 262 264 265 267 270 270 268 268 270 268 267 270 272 272 272 270 269 266 263 260 256 253 251 253 256 259 260 255 252 251 240 225 216 217 221 223 225 227 227 226 227 227 228 228 228 228 227 226 226 225 225 225 226 228 230 232
282 283 283 282 280 280 280 278 273 270 270 271 270 269 267 264 261 257 253 250 250 250 251 252 252 253 256 261 264 266 269 270 271 273 272 269 267 270 271 268 266 267 267 266 266 266 263 260 259 255 252 252 253 255 257 261 260 252 249 245 233 221 219 222 224 225 226 229 230 229 230 231 230 230 229 228 228 228 227 227 227 227 228 230 232
280 280 280 280 279 278 279 280 279 277 276 274 272 269 266 265 262 260 257 254 251 250 251 252 253 255 258 262 265 268 271 272 271 272 272 270 269 272 272 267 264 264 264 263 261 261 260 258 258 254 251 251 252 255 257 260 261 254 248 247 243 232 224 224 227 227 228 230 232 232 232 233 233 232 230 229 228 228 228 228 227 228 229 230 231
279 279 279 278 276 276 279 282 282 282 281 279 276 272 268 265 263 262 259 257 255 253 251 250 252 254 257 260 264 267 270 271 271 272 272 272 271 272 270 266 262 261 262 261 259 259 262 263 263 261 256 253 252 254 257 259 259 257 253 248 247 243 233 226 226 228 230 230 233 235 235 235 235 235 234 231 230 229 229 229 229 229 230 231 231
281 281 280 277 274 275 280 284 284 282 282 281 280 277 272 267 263 262 260 258 256 255 253 251 250 252 255 258 261 264 267 270 272 272 272 273 274 273 271 269 265 263 263 261 259 260 263 264 264 264 259 255 253 253 254 257 257 256 256 251 245 244 241 234 228 226 229 230 231 235 236 236 236 236 236 235 232 232 232 231 230 230 231 231 232
283 283 281 278 276 276 280 284 284 282 281 280 279 278 275 270 265 262 261 259 256 255 254 252 252 253 256 257 260 263 265 268 270 270 271 273 274 273 272 272 269 266 265 263 262 262 263 264 263 261 259 255 253 253 252 253 255 253 254 253 248 244 242 240 236 229 227 228 230 233 236 236 236 236 237 237 235 233 233 233 232 231 232 233 233
282 283 283 282 280 278 279 282 282 281 280 278 276 274 273 271 268 264 261 259 256 254 253 253 254 256 258 259 261 263 265 266 267 267 268 270 272 273 272 272 271 268 265 263 262 263 263 264 263 260 260 259 253 252 253 251 252 253 252 251 250 249 245 243 242 236 229 227 228 231 234 236 237 237 237 238 238 236 234 234 234 233 233 234 234
281 283 283 282 280 279 279 280 281 280 279 278 275 272 270 270 269 268 264 261 258 256 255 255 256 257 259 261 262 264 266 267 268 267 267 267 269 270 271 271 270 270 268 263 259 264 267 265 264 262 260 263 258 254 254 253 250 250 251 249 249 252 250 246 246 242 234 229 228 230 233 235 236 237 238 239 239 239 238 236 235 235 235 234 235
280 280 280 280 279 279 279 280 281 280 279 278 276 274 272 269 269 269 269 267 265 262 261 260 260 261 262 263 264 265 267 268 268 268 267 267 267 268 268 268 269 270 271 268 264 266 267 264 263 261 258 260 261 257 254 253 249 247 250 250 248 252 253 250 248 246 240 234 232 231 232 235 236 236 237 239 239 239 239 237 236 236 236 235 235
278 279 279 280 280 280 281 282 283 283 283 280 278 276 275 272 269 268 269 269 269 268 266 265 265 265 265 265 266 267 268 268 268 267 267 266 266 267 267 267 268 269 269 269 268 265 264 261 259 259 257 256 259 261 260 259 255 250 252 253 250 251 252 253 252 249 243 239 236 234 233 234 235 237 238 239 239 238 239 239 238 237 237 237 236
277 277 279 279 280 281 282 284 286 287 286 284 281 278 276 274 271 269 268 268 268 268 267 266 266 266 266 267 267 268 268 268 268 267 267 266 267 267 267 267 268 268 267 266 266 264 262 261 260 261 259 258 259 261 260 260 259 256 256 256 255 254 252 252 254 252 248 243 239 237 236 234 234 235 238 240 240 239 239 240 240 240 239 238 237
275 275 276 277 278 280 282 284 286 287 287 286 283 280 277 274 272 271 270 269 268 267 266 266 265 265 265 265 266 266 266 266 267 267 267 266 267 266 267 267 267 267 267 266 264 263 261 260 262 262 259 259 260 260 258 258 259 258 258 258 259 261 260 259 258 256 251 244 240 239 238 237 236 235 237 240 242 241 240 240 240 240 240 240 239
273 272 273 274 277 280 281 284 286 287 288 287 285 282 278 275 273 272 270 269 268 268 267 266 265 265 264 263 263 263 263 264 264 265 266 266 266 265 265 266 266 266 266 267 265 263 261 259 260 260 258 258 259 258 259 259 259 258 259 260 260 259 262 266 267 267 257 243 236 237 238 237 237 237 236 238 240 241 241 240 240 241 241 241 242
269 269 271 273 277 280 282 284 286 288 289 290 288 284 279 274 272 270 268 267 267 267 267 266 266 265 264 263 262 262 261 261 262 262 264 265 265 265 264 264 266 266 266 266 265 262 260 259 259 259 260 260 257 255 254 256 259 259 258 259 260 261 265 268 271 277 273 251 235 233 236 237 238 239 238 239 240 240 240 240 240 241 241 242 243
267 267 270 273 277 280 282 284 286 289 290 291 289 285 280 275 271 268 266 266 266 267 266 265 265 264 263 263 262 261 261 261 261 262 263 265 266 266 265 264 265 266 266 266 265 263 261 259 258 259 260 260 257 254 251 251 255 256 256 255 258 265 268 269 269 271 274 262 243 235 237 240 241 240 239 241 241 240 241 242 240 241 241 240 241
266 267 269 273 276 278 280 283 287 289 290 289 287 283 279 274 270 268 266 266 267 267 266 265 264 264 263 262 262 262 262 262 263 263 264 264 266 266 265 265 265 266 267 266 265 263 262 260 259 259 259 259 258 256 253 252 253 255 256 253 251 256 261 263 265 264 262 259 253 246 244 245 244 240 238 240 242 241 241 243 241 241 240 240 240
263 266 268 272 274 277 279 283 287 288 288 287 283 279 276 272 270 269 268 269 268 267 266 265 264 264 264 263 264 263 263 263 263 264 264 264 265 266 265 265 264 266 266 266 265 263 261 260 260 260 260 259 259 259 257 255 255 255 256 255 251 250 255 259 260 262 262 258 257 256 252 251 247 243 240 238 241 242 243 243 242 241 239 239 239
260 264 267 270 273 276 278 281 284 284 285 282 278 276 274 273 272 271 271 271 270 268 266 265 264 265 265 265 265 266 265 265 264 264 264 264 264 264 264 263 263 264 264 264 264 262 261 260 260 261 261 261 260 260 260 258 258 257 257 258 256 251 252 256 258 259 260 260 263 263 258 255 251 247 243 240 241 246 247 246 244 244 243 242 241
258 263 266 268 270 273 275 278 280 280 279 275 272 274 275 276 276 274 274 273 272 271 268 267 266 266 266 266 266 266 266 266 265 265 264 263 263 263 263 262 262 262 262 262 262 261 261 260 260 261 261 262 261 261 260 259 260 260 259 258 258 255 252 253 255 257 258 258 262 264 263 261 256 248 243 242 242 246 249 248 247 249 250 247 245
Height
5849 5849 5848 5848 5848 5848 5849 5849 5849 5849 5849 5849 5849 5848 5848 5848 5847 5847 5846 5846 5845 5845 5844 5844 5844 5843 5843 5843 5843 5842 5842 5842 5841 5841 5840 5840 5839 5839 5839 5839 5839 5839 5840 5840 5840 5840 5840 5839 5839 5840 5840 5841 5841 5841 5841 5842 5842 5843 5843 5844 5845 5846 5847 5848 5848 5849 5849 5849 5850 5850 5851 5851 5851 5852 5852 5852 5852 5853 5853 5853 5853 5854 5853 5853 5853
5847 5847 5847 5847 5847 5847 5848 5848 5848 5848 5848 5847 5847 5847 5847 5846 5846 5845 5845 5844 5844 5844 5843 5843 5842 5842 5842 5842 5841 5841 5841 5840 5840 5840 5840 5839 5838 5838 5838 5838 5838 5838 5839 5839 5840 5840 5839 5839 5839 5839 5840 5840 5841 5841 5841 5841 5842 5842 5843 5844 5845 5846 5847 5847 5848 5848 5849 5849 5850 5850 5851 5851 5851 5852 5852 5852 5853 5853 5853 5853 5854 5854 5854 5854 5854
5845 5845 5845 5845 5846 5846 5847 5846 5846 5846 5846 5846 5846 5845 5845 5845 5844 5844 5844 5843 5843 5842 5842 5842 5841 5841 5841 5840 5840 5839 5839 5839 5839 5838 5838 5838 5838 5837 5837 5837 5837 5837 5838 5838 5839 5839 5839 5838 5838 5838 5839 5840 5840 5840 5841 5841 5841 5842 5842 5843 5845 5846 5846 5847 5848 5848 5849 5849 5850 5850 5851 5851 5851 5851 5852 5852 5853 5853 5853 5854 5854 5854 5854 5854 5854
5843 5843 5843 5844 5844 5845 5845 5845 5845 5845 5845 5845 5844 5844 5843 5843 5843 5843 5842 5842 5842 5841 5841 5840 5840 5840 5839 5839 5839 5838 5838 5837 5837 5837 5837 5837 5837 5836 5836 5836 5836 5836 5837 5837 5838 5838 5838 5838 5837 5838 5838 5839 5839 5840 5840 5841 5841 5841 5842 5843 5844 5845 5846 5847 5848 5848 5849 5849 5850 5850 5851 5851 5851 5851 5852 5852 5853 5853 5853 5854 5854 5854 5854 5855 5855
5841 5841 5842 5843 5843 5844 5844 5844 5844 5844 5844 5843 5843 5842 5842 5842 5841 5841 5841 5841 5841 5840 5840 5839 5839 5838 5838 5837 5837 5837 5836 5836 5836 5835 5835 5835 5835 5835 5835 5835 5835 5835 5836 5836 5837 5837 5837 5837 5837 5837 5837 5838 5838 5839 5840 5840 5841 5841 5841 5842 5844 5845 5846 5847 5847 5848 5849 5850 5850 5850 5851 5851 5851 5851 5852 5852 5853 5853 5853 5854 5854 5854 5855 5855 5855
5839 5840 5840 5841 5842 5843 5843 5843 5843 5842 5842 5842 5841 5841 5841 5840 5840 5840 5840 5840 5839 5839 5838 5838 5837 5837 5836 5836 5835 5835 5835 5835 5834 5834 5834 5834 5834 5834 5834 5834 5833 5834 5835 5835 5836 5836 5836 5836 5836 5836 5836 5837 5837 5838 5839 5840 5840 5840 5841 5842 5843 5844 5845 5846 5847 5848 5849 5850 5850 5850 5851 5851 5851 5851 5851 5852 5853 5853 5853 5854 5854 5854 5855 5855 5855
5838 5838 5839 5840 5840 5841 5841 5841 5841 5841 5841 5840 5840 5840 5839 5839 5839 5839 5838 5838 5838 5837 5837 5836 5836 5835 5834 5834 5834 5834 5834 5834 5833 5833 5833 5832 5832 5833 5833 5833 5832 5833 5834 5834 5835 5835 5835 5835 5835 5835 5835 5836 5836 5837 5838 5839 5839 5840 5840 5841 5842 5843 5845 5846 5847 5848 5849 5850 5850 5850 5851 5851 5851 5851 5852 5852 5853 5853 5853 5854 5854 5854 5855 5855 5856
5836 5836 5837 5838 5839 5839 5839 5840 5840 5839 5839 5839 5838 5838 5838 5838 5837 5837 5837 5837 5836 5836 5835 5835 5834 5833 5833 5833 5833 5833 5833 5832 5832 5832 5832 5831 5831 5831 5832 5832 5832 5832 5833 5833 5834 5834 5834 5834 5834 5834 5834 5835 5836 5836 5837 5838 5839 5839 5840 5841 5841 5842 5844 5846 5847 5848 5849 5849 5850 5850 5851 5851 5851 5851 5852 5852 5853 5853 5854 5854 5854 5854 5855 5855 5856
5835 5835 5836 5837 5838 5838 5838 5838 5838 5838 5838 5837 5837 5836 5836 5836 5836 5836 5836 5835 5835 5834 5834 5833 5832 5832 5832 5831 5831 5831 5831 5831 5831 5831 5830 5830 5830 5830 5830 5831 5831 5831 5831 5832 5832 5833 5833 5834 5833 5833 5833 5834 5835 5835 5836 5837 5838 5838 5839 5840 5840 5842 5843 5844 5846 5847 5848 5849 5850 5850 5851 5851 5851 5851 5852 5852 5852 5853 5854 5854 5854 5854 5855 5855 5856
5833 5834 5834 5835 5836 5836 5836 5836 5836 5836 5836 5835 5835 5835 5835 5835 5835 5834 5834 5833 5833 5832 5832 5831 5831 5831 5830 5830 5830 5830 5830 5830 5830 5829 5829 5829 5829 5829 5829 5829 5829 5830 5830 5830 5831 5832 5832 5832 5833 5832 5832 5833 5833 5834 5835 5836 5836 5837 5838 5839 5840 5841 5842 5843 5845 5846 5847 5849 5850 5850 5851 5851 5851 5851 5852 5852 5852 5853 5853 5854 5854 5854 5855 5855 5856
5832 5832 5833 5833 5834 5834 5834 5835 5835 5834 5834 5834 5833 5833 5833 5833 5833 5832 5832 5832 5831 5831 5830 5830 5829 5829 5829 5829 5828 5828 5828 5828 5828 5828 5828 5828 5828 5828 5828 5828 5828 5828 5828 5829 5829 5830 5830 5831 5831 5832 5832 5832 5832 5833 5834 5834 5835 5836 5837 5838 5839 5840 5841 5843 5844 5845 5847 5848 5849 5850 5850 5851 5851 5851 5852 5852 5852 5852 5853 5854 5854 5854 5855 5856 5856
5831 5830 5831 5831 5832 5832 5832 5833 5833 5832 5832 5832 5831 5832 5832 5831 5831 5830 5830 5830 5829 5829 5829 5828 5828 5828 5827 5827 5827 5827 5827 5827 5827 5826 5826 5826 5826 5826 5826 5826 5826 5827 5827 5827 5827 5828 5829 5829 5830 5831 5831 5831 5831 5832 5833 5833 5834 5835 5836 5837 5838 5839 5840 5842 5843 5844 5846 5847 5848 5850 5850 5851 5851 5851 5851 5852 5852 5852 5853 5854 5854 5855 5855 5856 5856
5829 5829 5829 5829 5830 5830 5830 5831 5831 5830 5830 5830 5830 5830 5830 5829 5829 5829 5828 5828 5828 5828 5827 5827 5827 5826 5826 5826 5825 5825 5825 5825 5825 5825 5825 5825 5825 5825 5825 5825 5825 5825 5825 5826 5826 5826 5827 5828 5829 5829 5830 5830 5830 5831 5832 5832 5833 5834 5835 5836 5836 5837 5839 5840 5842 5843 5844 5846 5847 5849 5849 5850 5850 5851 5851 5852 5852 5852 5853 5854 5854 5855 5855 5856 5856
5827 5827 5827 5827 5827 5828 5828 5828 5829 5829 5828 5828 5828 5828 5828 5827 5827 5827 5827 5826 5827 5826 5826 5826 5825 5825 5824 5824 5824 5824 5824 5824 5824 5823 5823 5823 5823 5823 5824 5824 5824 5824 5824 5824 5825 5825 5826 5827 5827 5828 5829 5829 5830 5830 5831 5831 5832 5833 5833 5835 5835 5836 5837 5839 5840 5842 5843 5844 5846 5847 5848 5849 5850 5850 5850 5851 5852 5853 5853 5854 5854 5855 5855 5856 5856
5825 5825 5826 5825 5825 5825 5826 5827 5827 5827 5826 5826 5826 5826 5825 5825 5826 5825 5825 5825 5825 5825 5824 5824 5824 5823 5823 5822 5822 5822 5822 5822 5822 5822 5822 5822 5822 5822 5822 5822 5822 5822 5822 5823 5823 5824 5824 5825 5826 5827 5828 5828 5829 5829 5830 5830 5831 5832 5833 5833 5834 5835 5836 5837 5839 5841 5842 5843 5845 5846 5847 5848 5849 5850 5850 5851 5852 5853 5853 5854 5854 5854 5855 5855 5856
5823 5823 5823 5823 5823 5823 5824 5825 5825 5824 5823 5823 5824 5823 5823 5824 5824 5823 5823 5823 5823 5822 5822 5822 5822 5821 5821 5820 5820 5820 5820 5820 5820 5820 5820 5820 5821 5821 5821 5821 5821 5820 5820 5821 5822 5822 5823 5824 5825 5826 5827 5827 5827 5828 5828 5829 5830 5831 5832 5832 5833 5834 5835 5837 5838 5839 5841 5842 5844 5845 5847 5847 5848 5849 5850 5851 5851 5852 5853 5853 5854 5854 5854 5855 5855
5821 5821 5821 5821 5821 5821 5821 5822 5822 5822 5821 5822 5821 5821 5821 5822 5821 5821 5821 5821 5821 5820 5820 5820 5820 5819 5819 5818 5818 5817 5818 5818 5818 5818 5818 5819 5819 5819 5820 5819 5819 5819 5818 5819 5820 5821 5821 5822 5823 5825 5825 5826 5826 5827 5827 5828 5829 5830 5831 5832 5832 5833 5834 5835 5837 5838 5840 5841 5843 5844 5846 5847 5848 5848 5849 5850 5851 5851 5852 5853 5853 5853 5854 5854 5855
5818 5819 5819 5819 5819 5819 5819 5819 5819 5820 5820 5820 5819 5819 5820 5820 5819 5819 5819 5819 5819 5819 5819 5818 5818 5817 5816 5816 5815 5815 5815 5816 5816 5817 5817 5817 5818 5818 5818 5818 5818 5817 5817 5817 5818 5819 5820 5821 5822 5823 5824 5824 5825 5825 5826 5827 5828 5829 5830 5831 5831 5832 5833 5834 5835 5837 5838 5839 5841 5843 5845 5846 5847 5848 5848 5849 5850 5851 5851 5852 5853 5853 5853 5854 5854
5816 5817 5817 5817 5817 5817 5817 5817 5817 5817 5818 5817 5817 5817 5818 5817 5817 5817 5817 5817 5817 5817 5816 5816 5816 5815 5814 5814 5813 5813 5813 5813 5814 5815 5815 5816 5816 5817 5817 5817 5816 5816 5816 5816 5816 5818 5819 5819 5820 5821 5822 5822 5823 5824 5825 5825 5826 5828 5829 5830 5830 5831 5832 5833 5833 5835 5836 5837 5840 5842 5844 5845 5846 5847 5848 5848 5849 5850 5851 5852 5852 5853 5853 5853 5854
5814 5815 5815 5815 5815 5815 5815 5815 5814 5814 5815 5815 5814 5815 5815 5815 5814 5815 5815 5815 5815 5815 5814 5814 5813 5812 5812 5812 5811 5811 5811 5811 5812 5813 5814 5815 5815 5816 5816 5816 5815 5815 5815 5814 5815 5816 5817 5818 5818 5819 5819 5820 5821 5822 5823 5824 5825 5826 5827 5829 5829 5830 5831 5831 5832 5834 5835 5836 5839 5841 5842 5843 5845 5846 5847 5848 5848 5849 5850 5851 5852 5853 5853 5853 5853
5812 5812 5813 5813 5813 5813 5813 5813 5812 5812 5812 5812 5812 5812 5812 5812 5812 5812 5812 5812 5813 5813 5812 5811 5811 5811 5811 5810 5809 5809 5809 5809 5810 5811 5812 5813 5813 5814 5814 5814 5814 5814 5814 5813 5813 5814 5815 5816 5816 5817 5818 5819 5819 5820 5821 5822 5823 5824 5826 5827 5828 5828 5829 5830 5831 5832 5833 5835 5838 5839 5840 5842 5843 5845 5846 5847 5848 5848 5849 5850 5851 5852 5853 5853 5853
5810 5810 5811 5811 5811 5810 5811 5811 5810 5809 5809 5809 5810 5810 5809 5809 5809 5809 5809 5809 5810 5810 5810 5809 5809 5809 5809 5808 5807 5807 5807 5807 5808 5810 5810 5811 5812 5813 5813 5813 5813 5813 5813 5813 5812 5812 5813 5814 5815 5815 5816 5817 5818 5818 5819 5820 5822 5823 5825 5826 5826 5826 5827 5828 5829 5830 5831 5833 5836 5837 5838 5840 5842 5843 5845 5846 5847 5848 5848 5849 5850 5851 5852 5852 5853
5808 5808 5809 5809 5809 5808 5808 5809 5808 5806 5807 5807 5807 5808 5806 5806 5807 5807 5807 5807 5807 5808 5807 5807 5807 5807 5806 5805 5804 5804 5805 5805 5806 5807 5808 5809 5811 5811 5812 5812 5812 5812 5812 5812 5811 5811 5812 5812 5813 5814 5814 5815 5816 5817 5818 5819 5820 5821 5822 5823 5824 5824 5825 5826 5827 5829 5830 5832 5834 5835 5837 5838 5840 5842 5843 5845 5846 5847 5847 5848 5849 5850 5851 5852 5852
5806 5806 5806 5807 5807 5807 5807 5807 5806 5803 5804 5805 5804 5804 5804 5804 5804 5804 5805 5805 5805 5805 5805 5805 5805 5805 5804 5802 5801 5801 5802 5803 5804 5805 5806 5807 5809 5810 5810 5810 5810 5810 5810 5810 5810 5810 5810 5810 5811 5812 5812 5813 5813 5815 5816 5817 5818 5819 5820 5821 5822 5823 5824 5824 5826 5827 5828 5830 5832 5833 5835 5836 5838 5840 5841 5843 5844 5845 5846 5847 5848 5849 5850 5851 5852
5804 5804 5804 5805 5805 5805 5805 5805 5803 5801 5800 5801 5800 5801 5801 5802 5802 5802 5803 5803 5803 5803 5802 5803 5804 5803 5802 5800 5799 5799 5801 5802 5803 5803 5804 5805 5807 5808 5808 5808 5808 5808 5808 5809 5809 5809 5809 5809 5809 5810 5811 5811 5812 5813 5814 5815 5816 5817 5818 5819 5820 5821 5823 5823 5824 5825 5826 5829 5830 5831 5833 5834 5836 5838 5839 5841 5842 5843 5845 5846 5847 5848 5849 5850 5851
5802 5802 5802 5803 5803 5803 5803 5803 5802 5800 5799 5797 5797 5799 5798 5799 5800 5800 5801 5801 5800 5800 5800 5802 5802 5800 5799 5799 5798 5798 5799 5800 5802 5803 5803 5804 5804 5805 5805 5805 5806 5805 5806 5807 5807 5808 5808 5808 5808 5808 5809 5809 5810 5811 5812 5813 5814 5814 5815 5816 5818 5819 5821 5822 5823 5823 5825 5827 5828 5829 5831 5832 5834 5836 5837 5839 5840 5842 5843 5844 5846 5847 5848 5849 5850
5800 5800 5800 5801 5801 5801 5801 5801 5801 5800 5799 5796 5795 5796 5796 5796 5797 5797 5796 5797 5797 5797 5798 5799 5798 5797 5797 5797 5796 5796 5797 5799 5801 5802 5803 5803 5803 5803 5803 5803 5803 5803 5804 5806 5807 5807 5808 5807 5807 5807 5807 5807 5807 5808 5810 5811 5812 5812 5813 5814 5816 5818 5819 5820 5821 5822 5823 5825 5826 5827 5829 5830 5832 5834 5835 5837 5838 5839 5841 5842 5844 5845 5846 5847 5848
5797 5798 5798 5798 5799 5799 5798 5798 5798 5798 5797 5795 5793 5793 5793 5794 5795 5795 5794 5794 5794 5794 5795 5795 5795 5795 5795 5796 5796 5796 5796 5797 5798 5800 5801 5801 5801 5801 5801 5801 5800 5800 5803 5804 5805 5805 5806 5806 5806 5806 5805 5805 5805 5806 5808 5809 5810 5810 5811 5813 5814 5816 5817 5818 5820 5821 5822 5823 5824 5825 5827 5828 5830 5832 5834 5835 5836 5838 5839 5840 5841 5843 5844 5845 5846
5795 5796 5796 5796 5796 5796 5795 5795 5795 5795 5795 5794 5792 5791 5791 5792 5793 5793 5792 5791 5791 5792 5792 5793 5793 5793 5792 5793 5794 5795 5795 5796 5796 5797 5798 5798 5799 5800 5799 5799 5798 5798 5800 5801 5802 5803 5803 5804 5804 5804 5804 5803 5803 5804 5805 5807 5808 5808 5809 5810 5812 5813 5815 5816 5818 5820 5820 5821 5822 5823 5825 5826 5828 5830 5831 5833 5834 5835 5837 5838 5839 5841 5842 5843 5844
5793 5794 5794 5794 5794 5793 5792 5792 5792 5792 5792 5791 5791 5790 5790 5790 5790 5789 5788 5789 5790 5790 5790 5791 5791 5790 5791 5791 5793 5794 5795 5795 5795 5796 5796 5796 5799 5799 5798 5798 5797 5797 5799 5800 5800 5801 5802 5802 5802 5802 5802 5802 5801 5802 5803 5805 5805 5806 5806 5807 5808 5810 5812 5814 5816 5818 5818 5819 5820 5821 5822 5824 5825 5827 5829 5830 5831 5833 5834 5836 5837 5839 5840 5841 5842
5791 5791 5792 5791 5791 5790 5789 5789 5789 5789 5789 5789 5789 5788 5788 5788 5788 5787 5787 5787 5788 5788 5789 5789 5789 5789 5790 5791 5792 5793 5794 5795 5795 5795 5796 5796 5798 5798 5797 5797 5797 5797 5798 5799 5799 5800 5800 5801 5800 5800 5800 5800 5799 5799 5800 5802 5803 5803 5803 5804 5805 5807 5809 5812 5814 5815 5816 5817 5819 5820 5821 5822 5823 5824 5826 5827 5829 5830 5832 5833 5835 5836 5838 5839 5840
5789 5789 5789 5789 5788 5788 5787 5786 5786 5786 5786 5786 5786 5786 5786 5786 5786 5787 5786 5785 5785 5787 5788 5788 5788 5789 5789 5790 5791 5791 5792 5793 5794 5794 5795 5796 5797 5797 5796 5795 5796 5796 5796 5797 5797 5798 5798 5798 5798 5798 5798 5798 5797 5797 5798 5799 5801 5801 5801 5801 5802 5804 5807 5809 5811 5812 5814 5815 5816 5818 5819 5820 5821 5822 5823 5825 5826 5828 5829 5831 5833 5834 5836 5837 5838
5787 5787 5787 5786 5786 5785 5785 5784 5784 5784 5784 5784 5784 5784 5784 5784 5784 5785 5785 5784 5784 5785 5786 5786 5786 5787 5787 5788 5788 5789 5790 5791 5792 5793 5794 5795 5796 5795 5794 5794 5794 5794 5795 5795 5795 5796 5796 5796 5796 5796 5796 5796 5796 5795 5795 5797 5799 5800 5800 5800 5801 5802 5804 5806 5808 5809 5811 5813 5814 5815 5817 5818 5818 5820 5821 5822 5824 5825 5827 5829 5830 5832 5833 5834 5836
5785 5785 5785 5784 5784 5783 5783 5783 5782 5782 5782 5783 5783 5783 5783 5783 5783 5783 5783 5784 5783 5784 5784 5784 5785 5785 5785 5786 5786 5787 5787 5789 5790 5791 5792 5793 5793 5793 5792 5792 5792 5792 5793 5793 5793 5793 5793 5793 5793 5793 5794 5794 5794 5794 5793 5794 5796 5798 5798 5798 5799 5800 5801 5803 5805 5807 5809 5811 5812 5813 5815 5816 5816 5818 5819 5820 5822 5823 5825 5826 5828 5829 5830 5832 5833
5783 5783 5782 5782 5781 5781 5781 5781 5781 5781 5781 5781 5781 5781 5781 5781 5781 5781 5782 5782 5782 5782 5783 5783 5783 5783 5783 5784 5784 5785 5786 5787 5788 5789 5790 5790 5790 5791 5790 5790 5789 5790 5790 5790 5790 5790 5790 5791 5790 5790 5790 5791 5791 5791 5791 5791 5793 5795 5796 5796 5797 5798 5799 5801 5802 5805 5807 5808 5810 5811 5812 5813 5814 5815 5816 5818 5819 5820 5822 5823 5825 5826 5828 5829 5830
5781 5780 5780 5779 5779 5779 5779 5779 5779 5779 5779 5779 5779 5779 5779 5779 5779 5779 5780 5780 5780 5781 5781 5782 5782 5782 5782 5783 5783 5784 5784 5785 5786 5787 5787 5787 5787 5788 5788 5787 5786 5786 5787 5787 5787 5787 5788 5789 5789 5788 5788 5789 5789 5789 5789 5789 5790 5792 5793 5794 5795 5795 5797 5798 5800 5802 5804 5806 5807 5809 5810 5811 5812 5813 5814 5815 5816 5818 5819 5821 5822 5824 5825 5827 5828
5778 5777 5777 5776 5776 5777 5777 5778 5778 5778 5777 5777 5776 5776 5776 5777 5777 5777 5778 5778 5779 5779 5779 5780 5781 5781 5781 5782 5782 5783 5783 5783 5783 5784 5785 5784 5785 5786 5786 5785 5784 5783 5784 5785 5785 5785 5786 5786 5787 5787 5787 5787 5787 5787 5788 5788 5788 5790 5791 5791 5792 5793 5794 5795 5797 5799 5800 5802 5805 5806 5808 5809 5810 5811 5812 5813 5814 5815 5816 5818 5820 5821 5822 5824 5825
5775 5774 5774 5773 5774 5775 5775 5776 5776 5776 5775 5775 5774 5774 5774 5774 5775 5775 5775 5776 5776 5777 5777 5778 5778 5779 5779 5780 5781 5781 5781 5781 5781 5782 5782 5783 5783 5784 5783 5782 5781 5781 5782 5783 5784 5784 5784 5783 5784 5785 5785 5785 5785 5785 5786 5786 5787 5788 5788 5788 5789 5790 5791 5792 5794 5795 5796 5799 5801 5803 5805 5806 5807 5809 5810 5810 5811 5812 5814 5815 5817 5818 5820 5821 5822
5772 5772 5771 5771 5772 5772 5773 5774 5774 5773 5773 5773 5772 5772 5772 5772 5772 5773 5773 5773 5774 5774 5774 5775 5776 5777 5777 5777 5778 5779 5779 5779 5779 5780 5781 5781 5781 5782 5781 5780 5779 5778 5779 5781 5782 5781 5781 5781 5782 5782 5782 5783 5783 5784 5784 5784 5785 5786 5785 5785 5786 5786 5787 5789 5790 5792 5793 5796 5798 5799 5801 5803 5805 5806 5807 5807 5808 5810 5811 5813 5814 5815 5816 5818 5819
5769 5769 5769 5769 5769 5770 5771 5771 5771 5771 5771 5770 5770 5770 5769 5770 5770 5770 5770 5771 5771 5771 5772 5772 5773 5774 5774 5775 5775 5776 5776 5776 5777 5777 5778 5779 5779 5779 5779 5778 5777 5776 5777 5778 5779 5779 5779 5779 5779 5780 5780 5780 5781 5782 5782 5782 5783 5783 5783 5783 5783 5783 5784 5786 5787 5788 5790 5792 5794 5795 5797 5799 5801 5802 5804 5805 5806 5807 5809 5810 5812 5812 5813 5815 5816
5767 5767 5766 5766 5767 5767 5768 5769 5769 5768 5768 5768 5768 5767 5767 5767 5768 5767 5767 5768 5768 5769 5769 5770 5770 5771 5771 5772 5772 5772 5773 5773 5774 5774 5775 5776 5777 5777 5777 5776 5775 5774 5774 5775 5776 5777 5777 5777 5777 5777 5778 5778 5778 5779 5779 5779 5780 5780 5780 5780 5781 5781 5782 5783 5784 5785 5787 5789 5790 5792 5793 5795 5797 5798 5800 5801 5803 5805 5806 5807 5809 5809 5810 5812 5813
5765 5764 5764 5764 5764 5764 5765 5766 5766 5766 5765 5765 5765 5765 5765 5765 5765 5765 5765 5765 5765 5766 5766 5767 5767 5768 5768 5768 5769 5769 5770 5770 5771 5771 5772 5773 5773 5774 5774 5773 5772 5772 5772 5772 5773 5774 5774 5773 5774 5774 5775 5776 5776 5776 5776 5776 5777 5777 5778 5778 5779 5779 5779 5780 5781 5782 5784 5785 5786 5788 5789 5791 5793 5794 5796 5797 5800 5802 5803 5804 5806 5806 5807 5808 5810
5762 5762 5762 5762 5761 5761 5763 5763 5763 5763 5763 5763 5762 5763 5763 5763 5763 5763 5763 5763 5763 5763 5763 5764 5764 5764 5765 5765 5766 5766 5767 5767 5768 5768 5769 5770 5770 5771 5771 5771 5770 5769 5769 5769 5769 5770 5770 5770 5770 5771 5772 5773 5773 5773 5774 5774 5774 5774 5775 5776 5776 5777 5777 5778 5778 5778 5779 5781 5783 5784 5785 5787 5789 5790 5792 5794 5796 5798 5800 5802 5802 5803 5804 5805 5806
5760 5760 5760 5759 5758 5759 5760 5761 5761 5761 5761 5761 5760 5760 5760 5760 5760 5760 5760 5760 5760 5761 5761 5761 5761 5762 5762 5762 5763 5763 5763 5764 5764 5765 5766 5767 5767 5768 5768 5768 5767 5766 5766 5766 5767 5767 5768 5768 5768 5768 5769 5770 5770 5769 5770 5771 5771 5772 5772 5773 5774 5774 5775 5775 5775 5775 5775 5776 5779 5780 5781 5783 5785 5786 5788 5790 5792 5794 5796 5798 5799 5800 5801 5802 5803
5759 5758 5758 5757 5756 5756 5757 5758 5759 5759 5759 5759 5758 5758 5758 5758 5758 5758 5758 5758 5758 5758 5758 5758 5758 5759 5759 5759 5760 5760 5760 5761 5761 5762 5763 5763 5764 5765 5765 5765 5764 5764 5763 5764 5764 5764 5765 5765 5766 5766 5766 5767 5767 5767 5767 5768 5769 5769 5770 5771 5771 5771 5772 5772 5772 5772 5771 5772 5774 5776 5777 5779 5781 5782 5783 5785 5787 5789 5791 5793 5795 5797 5798 5800 5801
5757 5756 5755 5755 5754 5753 5754 5756 5756 5756 5757 5756 5756 5755 5755 5755 5755 5755 5755 5755 5755 5755 5755 5755 5756 5756 5756 5756 5756 5756 5757 5757 5758 5758 5759 5760 5761 5761 5762 5762 5762 5761 5761 5761 5761 5761 5762 5762 5763 5763 5763 5764 5765 5764 5764 5766 5766 5767 5767 5768 5768 5769 5769 5770 5769 5769 5769 5768 5770 5771 5773 5775 5777 5777 5779 5781 5782 5784 5785 5788 5791 5793 5795 5797 5798
5754 5754 5753 5752 5752 5751 5751 5752 5753 5754 5754 5754 5753 5753 5753 5752 5752 5752 5752 5752 5752 5752 5752 5753 5753 5753 5753 5753 5753 5753 5754 5754 5754 5755 5756 5756 5757 5758 5759 5759 5759 5759 5759 5758 5758 5758 5759 5759 5760 5760 5760 5761 5761 5761 5762 5763 5764 5764 5765 5766 5767 5768 5767 5767 5767 5767 5767 5767 5768 5769 5770 5772 5773 5775 5776 5777 5778 5780 5782 5784 5787 5788 5790 5792 5793
5751 5751 5751 5750 5749 5749 5748 5749 5751 5751 5751 5751 5751 5750 5750 5750 5750 5750 5749 5749 5750 5750 5750 5750 5750 5750 5751 5751 5751 5751 5751 5751 5752 5752 5753 5753 5754 5755 5755 5756 5756 5756 5756 5756 5756 5756 5756 5756 5757 5757 5758 5758 5758 5759 5759 5760 5761 5761 5762 5763 5765 5766 5764 5764 5764 5765 5765 5765 5766 5767 5768 5769 5770 5771 5773 5773 5774 5776 5778 5780 5781 5782 5785 5787 5788
5748 5748 5748 5748 5747 5746 5746 5747 5748 5748 5748 5748 5748 5748 5747 5747 5747 5747 5747 5747 5747 5747 5747 5747 5748 5748 5748 5748 5748 5749 5749 5749 5749 5749 5750 5750 5751 5751 5752 5753 5753 5753 5753 5753 5753 5753 5753 5754 5754 5754 5755 5755 5755 5756 5756 5757 5758 5758 5758 5759 5762 5763 5761 5760 5761 5763 5763 5764 5764 5765 5765 5766 5766 5767 5769 5770 5770 5772 5774 5775 5775 5777 5781 5782 5783
5746 5745 5745 5745 5744 5743 5743 5744 5745 5745 5745 5745 5745 5745 5745 5745 5745 5745 5745 5745 5745 5745 5745 5745 5745 5745 5745 5745 5746 5746 5746 5746 5747 5747 5747 5747 5748 5748 5749 5750 5750 5751 5751 5751 5751 5751 5751 5751 5751 5752 5752 5753 5753 5753 5753 5754 5754 5755 5755 5756 5758 5759 5759 5758 5759 5760 5760 5761 5762 5762 5763 5763 5764 5765 5766 5767 5768 5768 5769 5770 5771 5773 5776 5777 5779
5744 5743 5743 5742 5742 5741 5741 5741 5742 5743 5742 5742 5742 5743 5742 5742 5742 5742 5743 5743 5743 5743 5743 5743 5743 5743 5743 5743 5743 5744 5744 5744 5744 5745 5745 5745 5746 5746 5747 5747 5748 5748 5748 5748 5748 5748 5748 5748 5749 5749 5749 5750 5750 5751 5751 5751 5751 5752 5753 5753 5754 5755 5756 5756 5757 5757 5757 5758 5760 5761 5761 5761 5762 5763 5763 5765 5766 5766 5767 5768 5769 5770 5771 5773 5775